Weather History for Bellefontaine, OH

Change the Weather History Date:

Tuesday, November 22, 2011

  Actual Average (KDAY) Record (KDAY)
Temperature  
Mean Temperature 49 °F 40 °F  
Max Temperature 59 °F 48 °F 74 °F (1900)
Min Temperature 37 °F 32 °F 8 °F (1964)
Degree Days  
Heating Degree Days 16 25  
Month to date heating degree days 448  
Since 1 July heating degree days 895  
Cooling Degree Days 0 0  
Month to date cooling degree days 0  
Year to date cooling degree days 891  
Moisture  
Dew Point 46 °F    
Average Humidity 98    
Maximum Humidity 100    
Minimum Humidity 87    
Precipitation  
Precipitation 0.63 in 0.13 in 1.54 in (1920)
Month to date precipitation 2.47  
Year to date precipitation 37.01  
Snow  
Snow 0.00 in 0.00 in 0.80 in (1967)
Month to date snowfall 0.3  
Since 1 July snowfall 0.7  
Since 1 September snowfall 0.7  
Snow Depth -    
Sea Level Pressure  
Sea Level Pressure 29.88 in    
Wind  
Wind Speed 10 mph (ESE)    
Max Wind Speed 23 mph    
Max Gust Speed 41 mph    
Visibility 6 miles    
Events      
T = Trace of Precipitation, MM = Missing Value Source: NWS Daily Summary

Daily Weather History Graph

Daily Weather History Graph

Search for Another Location

Airport:

Trip Planner

Search our weather history database for the weather conditions in past years. The results will help you decide how hot, cold, wet, or windy it might be!

Date:

Astronomy

Nov. 22, 2011 Rise Set
Actual Time 7:29 AM EST 5:13 PM EST
Civil Twilight 6:59 AM EST 5:43 PM EST
Nautical Twilight 6:26 AM EST 6:16 PM EST
Astronomical Twilight 5:53 AM EST 6:48 PM EST
Moon 4:18 AM EST (11/22) 3:12 PM EST (11/22)
Length of Visible Light 10h 43m
Length of Day
9h 44m
Waning Crescent, 9% of the Moon is Illuminated
Nov 22
Waning Crescent
Nov 25
New
Dec 2
First Quarter
Dec 10
Full
Dec 17
Last Quarter

Hourly Weather History & Observations

Time (EST) Temp. Windchill Dew Point Humidity Pressure Visibility Wind Dir Wind Speed Gust Speed Precip Events Conditions
12:30 AM 41.0 °F 35.8 °F 39.2 °F 93% 30.16 in 5.0 mi NE 8.1 mph - 0.00 in   Overcast
1:10 AM 41.0 °F 36.4 °F 39.2 °F 93% 30.15 in 7.0 mi ENE 6.9 mph - 0.00 in   Overcast
1:30 AM 41.0 °F 36.4 °F 37.4 °F 87% 30.15 in 7.0 mi NE 6.9 mph - 0.00 in   Overcast
1:55 AM 41.0 °F 36.4 °F 39.2 °F 93% 30.15 in 8.0 mi ENE 6.9 mph - 0.00 in   Overcast
2:10 AM 41.0 °F 36.4 °F 37.4 °F 87% 30.15 in 9.0 mi NE 6.9 mph - 0.00 in   Overcast
2:30 AM 41.0 °F 36.4 °F 37.4 °F 87% 30.15 in 5.0 mi NE 6.9 mph - 0.00 in   Overcast
2:55 AM 41.0 °F 36.4 °F 39.2 °F 93% 30.14 in 4.0 mi ENE 6.9 mph - 0.00 in   Overcast
3:10 AM 41.0 °F 35.8 °F 39.2 °F 93% 30.14 in 5.0 mi ENE 8.1 mph - 0.00 in   Overcast
3:35 AM 41.0 °F 35.8 °F 39.2 °F 93% 30.13 in 5.0 mi ENE 8.1 mph - 0.00 in   Overcast
3:55 AM 41.0 °F 36.4 °F 39.2 °F 93% 30.12 in 6.0 mi NE 6.9 mph - 0.00 in   Overcast
4:10 AM 41.0 °F 35.2 °F 39.2 °F 93% 30.11 in 6.0 mi ENE 9.2 mph - 0.00 in   Overcast
4:35 AM 41.0 °F 34.7 °F 39.2 °F 93% 30.10 in 5.0 mi ENE 10.4 mph - 0.00 in   Overcast
4:55 AM 41.0 °F 35.8 °F 39.2 °F 93% 30.09 in 5.0 mi ENE 8.1 mph - 0.00 in   Overcast
5:10 AM 41.0 °F 36.4 °F 39.2 °F 93% 30.09 in 5.0 mi ENE 6.9 mph - 0.00 in   Overcast
5:30 AM 41.0 °F 34.7 °F 41.0 °F 100% 30.09 in 4.0 mi ENE 10.4 mph - 0.00 in   Overcast
5:55 AM 42.8 °F 38.6 °F 41.0 °F 93% 30.08 in 5.0 mi East 6.9 mph - 0.00 in   Overcast
6:10 AM 42.8 °F 39.3 °F 42.8 °F 100% 30.08 in 5.0 mi East 5.8 mph - 0.00 in   Overcast
6:55 AM 42.8 °F 37.5 °F 41.0 °F 93% 30.05 in 5.0 mi ENE 9.2 mph 18.4 mph 0.00 in   Overcast
7:10 AM 42.8 °F 37.5 °F 42.8 °F 100% 30.04 in 6.0 mi East 9.2 mph - 0.00 in   Overcast
7:30 AM 42.8 °F 39.3 °F 42.8 °F 100% 30.04 in 7.0 mi NE 5.8 mph - 0.00 in   Overcast
7:55 AM 42.8 °F 37.5 °F 42.8 °F 100% 30.03 in 6.0 mi ENE 9.2 mph - 0.00 in   Overcast
8:10 AM 42.8 °F 39.3 °F 42.8 °F 100% 30.04 in 6.0 mi East 5.8 mph - 0.00 in   Overcast
8:30 AM 44.6 °F 38.8 °F 44.6 °F 100% 30.03 in 7.0 mi ENE 11.5 mph - 0.00 in   Overcast
8:55 AM 44.6 °F 40.2 °F 44.6 °F 100% 30.02 in 5.0 mi East 8.1 mph - 0.00 in   Overcast
9:15 AM 44.6 °F 40.2 °F 44.6 °F 100% 30.01 in 4.0 mi East 8.1 mph - 0.00 in   Overcast
9:35 AM 44.6 °F 38.4 °F 44.6 °F 100% 29.99 in 2.0 mi East 12.7 mph 20.7 mph 0.04 in   Overcast
10:10 AM 44.6 °F 38.1 °F 44.6 °F 100% 29.97 in 1.5 mi East 13.8 mph 19.6 mph 0.08 in   Overcast
10:35 AM 44.6 °F 39.2 °F 44.6 °F 100% 29.96 in 4.0 mi East 10.4 mph 19.6 mph 0.15 in   Overcast
10:55 AM 44.6 °F 40.2 °F 44.6 °F 100% 29.95 in 3.0 mi East 8.1 mph 20.7 mph 0.18 in   Overcast
11:10 AM 44.6 °F 40.2 °F 44.6 °F 100% 29.95 in 4.0 mi ESE 8.1 mph - 0.02 in   Overcast
11:35 AM 46.4 °F 42.9 °F 46.4 °F 100% 29.93 in 3.0 mi ESE 6.9 mph - 0.09 in   Overcast
11:55 AM 46.4 °F 42.4 °F 46.4 °F 100% 29.91 in 2.0 mi ESE 8.1 mph - 0.15 in   Overcast
12:35 PM 46.4 °F 41.1 °F 46.4 °F 100% 29.84 in 5.0 mi ESE 11.5 mph 17.3 mph 0.08 in   Mostly Cloudy
1:15 PM 48.2 °F - 48.2 °F 100% 29.79 in 3.0 mi ESE 9.2 mph - 0.02 in   Mostly Cloudy
1:35 PM 48.2 °F - 48.2 °F 100% 29.78 in 3.0 mi ESE 10.4 mph - 0.06 in   Overcast
1:50 PM 48.2 °F - 48.2 °F 100% 29.77 in 2.5 mi SE 9.2 mph - 0.11 in   Overcast
2:35 PM 48.2 °F - 48.2 °F 100% 29.73 in 2.0 mi ESE 10.4 mph 20.7 mph 0.04 in   Overcast
2:55 PM 48.2 °F - 48.2 °F 100% 29.71 in 4.0 mi SE 10.4 mph - 0.07 in   Overcast
3:15 PM 50.0 °F - 50.0 °F 100% 29.70 in 10.0 mi SE 13.8 mph - 0.00 in   Overcast
3:30 PM 50.0 °F - 50.0 °F 100% 29.70 in 10.0 mi SE 13.8 mph - 0.00 in   Overcast
3:50 PM 50.0 °F - 50.0 °F 100% 29.69 in 9.0 mi SE 12.7 mph - 0.00 in   Overcast
4:15 PM 51.8 °F - 51.8 °F 100% 29.68 in 5.0 mi SE 13.8 mph - 0.00 in   Overcast
4:35 PM 51.8 °F - 51.8 °F 100% 29.67 in 6.0 mi SE 13.8 mph - 0.00 in   Overcast
4:55 PM 51.8 °F - 51.8 °F 100% 29.66 in 4.0 mi SE 15.0 mph - 0.00 in   Overcast
5:10 PM 53.6 °F - 53.6 °F 100% 29.65 in 5.0 mi SE 13.8 mph - 0.00 in   Overcast
5:35 PM 53.6 °F - 53.6 °F 100% 29.64 in 7.0 mi SSE 16.1 mph - 0.00 in   Mostly Cloudy
5:50 PM 55.4 °F - 55.4 °F 100% 29.63 in 9.0 mi SSE 13.8 mph - 0.00 in   Mostly Cloudy
6:35 PM 55.4 °F - 55.4 °F 100% 29.61 in 10.0 mi SSE 12.7 mph 18.4 mph 0.00 in   Overcast
6:55 PM 57.2 °F - 57.2 °F 100% 29.60 in 10.0 mi South 12.7 mph - 0.00 in   Mostly Cloudy
7:15 PM 57.2 °F - 57.2 °F 100% 29.59 in 10.0 mi South 16.1 mph - 0.00 in   Overcast
7:35 PM 57.2 °F - 57.2 °F 100% 29.58 in 10.0 mi South 13.8 mph - 0.00 in   Overcast
7:50 PM 57.2 °F - 57.2 °F 100% 29.58 in 10.0 mi South 16.1 mph 23.0 mph 0.00 in   Overcast
8:10 PM 59.0 °F - 59.0 °F 100% 29.57 in 10.0 mi South 18.4 mph 26.5 mph 0.00 in   Overcast
8:35 PM 57.2 °F - 57.2 °F 100% 29.58 in 5.0 mi SW 23.0 mph 41.4 mph 0.00 in   Overcast
9:10 PM 55.4 °F - 55.4 °F 100% 29.59 in 10.0 mi SW 19.6 mph 31.1 mph 0.00 in   Overcast
10:10 PM 46.4 °F 38.5 °F 46.4 °F 100% 29.65 in 10.0 mi West 21.9 mph 29.9 mph 0.00 in   Overcast
10:35 PM 44.6 °F 36.1 °F 44.6 °F 100% 29.67 in 5.0 mi West 21.9 mph 27.6 mph 0.00 in   Overcast
10:55 PM 42.8 °F 35.8 °F 42.8 °F 100% 29.68 in 3.0 mi West 13.8 mph 24.2 mph 0.00 in   Overcast
11:10 PM 39.2 °F 29.8 °F 39.2 °F 100% 29.69 in 5.0 mi West 18.4 mph 23.0 mph 0.00 in   Overcast
11:35 PM 39.2 °F 31.6 °F 39.2 °F 100% 29.72 in 7.0 mi West 12.7 mph 19.6 mph 0.00 in   Overcast
11:50 PM 37.4 °F 28.9 °F 37.4 °F 100% 29.73 in 3.0 mi West 13.8 mph - 0.00 in   Overcast